This is the latest recevied weather packets stored in our database for station/object K1BWE-1. If no packets are shown the sender has not sent any weather packets the latest 10 day(s).
| Time | Temp. | Humidity | Pressure | Rain* | Wind** | Luminosity | Snow |
|---|---|---|---|---|---|---|---|
| 1777701403 | 17.22° C | 33% | 1015 hPa | 0 mm | - | 0 W/m² | - |
| 1777701101 | 17.22° C | 33% | 1014.9 hPa | 0 mm | - | 0 W/m² | - |
| 1777700800 | 17.78° C | 33% | 1014.8 hPa | 0 mm | - | 0 W/m² | - |
| 1777700497 | 17.22° C | 33% | 1014.9 hPa | 0 mm | - | 0 W/m² | - |
| 1777700194 | 17.22° C | 33% | 1014.9 hPa | 0 mm | - | 0 W/m² | - |
| 1777699891 | 17.78° C | 32% | 1014.9 hPa | 0 mm | - | 0 W/m² | - |
| 1777699590 | 17.78° C | 32% | 1015.1 hPa | 0 mm | - | 0 W/m² | - |
| 1777699287 | 17.78° C | 32% | 1014.8 hPa | 0 mm | - | 0 W/m² | - |
| 1777698985 | 18.33° C | 32% | 1014.7 hPa | 0 mm | - | 0 W/m² | - |
| 1777698683 | 18.89° C | 30% | 1014.7 hPa | 0 mm | - | 0 W/m² | - |
| 1777698379 | 19.44° C | 30% | 1014.9 hPa | 0 mm | - | 0 W/m² | - |
| 1777698076 | 20° C | 29% | 1014.8 hPa | 0 mm | - | 0 W/m² | - |
| 1777697772 | 20° C | 29% | 1014.7 hPa | 0 mm | - | 0 W/m² | - |
| 1777697470 | 19.44° C | 30% | 1014.8 hPa | 0 mm | - | 0 W/m² | - |
| 1777697166 | 19.44° C | 29% | 1014.4 hPa | 0 mm | - | 0 W/m² | - |
| 1777696863 | 20° C | 29% | 1014.5 hPa | 0 mm | - | 0 W/m² | - |
| 1777696561 | 20° C | 29% | 1014.4 hPa | 0 mm | - | 0 W/m² | - |
| 1777696257 | 20° C | 29% | 1014.5 hPa | 0 mm | - | 0 W/m² | - |
| 1777695951 | 20° C | 29% | 1014.7 hPa | 0 mm | - | 0 W/m² | - |
| 1777695649 | 20.56° C | 29% | 1014.3 hPa | 0 mm | - | 0 W/m² | - |
| 1777695347 | 20° C | 29% | 1014.4 hPa | 0 mm | - | 0 W/m² | - |
| 1777695043 | 20° C | 29% | 1014.2 hPa | 0 mm | - | 0 W/m² | - |
| 1777694740 | 20.56° C | 29% | 1014.3 hPa | 0 mm | - | 0 W/m² | - |
| 1777694437 | 20.56° C | 29% | 1014.1 hPa | 0 mm | - | 0 W/m² | - |
| 1777694133 | 20.56° C | 29% | 1014.2 hPa | 0 mm | - | 0 W/m² | - |
* Rain latest hour (hover to see other rain measurements)
** Current wind speed in m/s (hover to see current wind gust speed)